Time,TemperatureF,DewpointF,PressureIn,WindDirection,WindDirectionDegrees,WindSpeedMPH,WindSpeedGustMPH,Humidity,HourlyPrecipIn,Conditions,Clouds,dailyrainin,SoftwareType,DateUTC
2013-02-17 00:01:00,46.3,39.5,29.80,WSW,248,0.0,0.2,77,0.00,,,0.00,WUHU216HW,2013-02-17 08:01:00,
2013-02-17 00:06:00,46.3,39.5,29.80,WSW,248,0.0,0.2,77,0.00,,,0.00,WUHU216HW,2013-02-17 08:06:00,
2013-02-17 00:11:00,46.3,39.5,29.80,WSW,248,0.0,0.0,77,0.00,,,0.00,WUHU216HW,2013-02-17 08:11:00,
2013-02-17 00:16:00,46.1,39.3,29.80,WSW,248,0.0,0.0,77,0.00,,,0.00,WUHU216HW,2013-02-17 08:16:00,
2013-02-17 00:21:00,46.1,39.6,29.80,WSW,248,0.0,0.0,78,0.00,,,0.00,WUHU216HW,2013-02-17 08:21:00,
2013-02-17 00:27:00,45.9,39.4,29.80,WSW,248,0.0,0.0,78,0.00,,,0.00,WUHU216HW,2013-02-17 08:27:00,
2013-02-17 00:32:00,45.7,39.2,29.80,WSW,248,0.0,0.0,78,0.00,,,0.00,WUHU216HW,2013-02-17 08:32:00,
2013-02-17 00:37:00,45.7,39.2,29.80,WSW,248,0.0,0.0,78,0.00,,,0.00,WUHU216HW,2013-02-17 08:37:00,
2013-02-17 00:42:00,45.5,39.1,29.80,WSW,248,0.0,0.0,78,0.00,,,0.00,WUHU216HW,2013-02-17 08:42:00,
2013-02-17 00:47:00,45.4,38.9,29.80,WSW,248,0.0,0.0,78,0.00,,,0.00,WUHU216HW,2013-02-17 08:47:00,
2013-02-17 00:52:00,45.2,39.1,29.80,SW,236,0.6,0.9,79,0.00,,,0.00,WUHU216HW,2013-02-17 08:52:00,
2013-02-17 00:57:00,45.2,39.1,29.80,SW,225,0.0,0.9,79,0.00,,,0.00,WUHU216HW,2013-02-17 08:57:00,
2013-02-17 01:02:00,45.0,38.9,29.80,SW,225,0.0,0.4,79,0.00,,,0.00,WUHU216HW,2013-02-17 09:02:00,
2013-02-17 01:07:00,45.0,39.2,29.80,SW,225,0.0,0.0,80,0.00,,,0.00,WUHU216HW,2013-02-17 09:07:00,
2013-02-17 01:12:00,45.0,38.9,29.80,SW,225,0.0,0.0,79,0.00,,,0.00,WUHU216HW,2013-02-17 09:12:00,
2013-02-17 01:17:00,45.0,39.2,29.80,SW,225,0.0,0.2,80,0.00,,,0.00,WUHU216HW,2013-02-17 09:17:00,
2013-02-17 01:22:00,45.0,39.2,29.80,SW,225,0.0,0.2,80,0.00,,,0.00,WUHU216HW,2013-02-17 09:22:00,
2013-02-17 01:27:00,44.8,39.1,29.80,SW,225,0.0,0.0,80,0.00,,,0.00,WUHU216HW,2013-02-17 09:27:00,
2013-02-17 01:32:00,44.8,39.1,29.80,SW,225,0.0,0.0,80,0.00,,,0.00,WUHU216HW,2013-02-17 09:32:00,
2013-02-17 01:37:00,44.6,38.9,29.80,SW,225,0.0,0.0,80,0.00,,,0.00,WUHU216HW,2013-02-17 09:37:00,
2013-02-17 01:42:00,44.5,39.0,29.80,SW,225,0.0,0.0,81,0.00,,,0.00,WUHU216HW,2013-02-17 09:42:00,
2013-02-17 01:47:00,44.5,39.0,29.80,SW,225,0.0,0.0,81,0.00,,,0.00,WUHU216HW,2013-02-17 09:47:00,
2013-02-17 01:52:00,44.3,38.8,29.80,SW,225,0.0,0.0,81,0.00,,,0.00,WUHU216HW,2013-02-17 09:52:00,
2013-02-17 01:57:00,44.3,38.8,29.80,SW,225,0.0,0.0,81,0.00,,,0.00,WUHU216HW,2013-02-17 09:57:00,
2013-02-17 02:02:00,44.1,38.6,29.80,SW,225,0.0,0.2,81,0.00,,,0.00,WUHU216HW,2013-02-17 10:02:00,
2013-02-17 02:07:00,44.1,39.0,29.80,SW,225,0.2,0.4,82,0.00,,,0.00,WUHU216HW,2013-02-17 10:07:00,
2013-02-17 02:12:00,44.1,39.0,29.79,SW,225,0.0,0.4,82,0.00,,,0.00,WUHU216HW,2013-02-17 10:12:00,
2013-02-17 02:17:00,44.1,39.0,29.79,SW,225,0.0,0.0,82,0.00,,,0.00,WUHU216HW,2013-02-17 10:17:00,
2013-02-17 02:22:00,43.9,38.8,29.79,SW,225,0.4,0.4,82,0.00,,,0.00,WUHU216HW,2013-02-17 10:22:00,
2013-02-17 02:27:00,43.7,38.6,29.79,SW,225,0.4,0.4,82,0.00,,,0.00,WUHU216HW,2013-02-17 10:27:00,
2013-02-17 02:32:00,43.7,38.6,29.79,SW,225,0.9,0.9,82,0.00,,,0.00,WUHU216HW,2013-02-17 10:32:00,
2013-02-17 02:37:00,43.6,38.4,29.78,SW,225,0.3,0.9,82,0.00,,,0.00,WUHU216HW,2013-02-17 10:37:00,
2013-02-17 02:42:00,43.6,38.4,29.78,SW,225,0.3,0.9,82,0.00,,,0.00,WUHU216HW,2013-02-17 10:42:00,
2013-02-17 02:47:00,43.4,38.3,29.78,SW,225,0.0,0.4,82,0.00,,,0.00,WUHU216HW,2013-02-17 10:47:00,
2013-02-17 02:52:00,43.2,38.1,29.78,SW,225,0.0,0.2,82,0.00,,,0.00,WUHU216HW,2013-02-17 10:52:00,
2013-02-17 02:57:00,43.0,38.2,29.78,SW,225,0.0,0.4,83,0.00,,,0.00,WUHU216HW,2013-02-17 10:57:00,
2013-02-17 03:02:00,42.8,38.0,29.78,SW,225,0.0,0.4,83,0.00,,,0.00,WUHU216HW,2013-02-17 11:02:00,
2013-02-17 03:07:00,42.8,38.0,29.77,SW,225,0.0,0.0,83,0.00,,,0.00,WUHU216HW,2013-02-17 11:07:00,
2013-02-17 03:12:00,42.8,38.0,29.77,SW,225,0.0,0.0,83,0.00,,,0.00,WUHU216HW,2013-02-17 11:12:00,
2013-02-17 03:17:00,42.7,37.8,29.77,SW,225,0.0,0.0,83,0.00,,,0.00,WUHU216HW,2013-02-17 11:17:00,
2013-02-17 03:22:00,42.7,37.8,29.77,SW,225,0.0,0.2,83,0.00,,,0.00,WUHU216HW,2013-02-17 11:22:00,
2013-02-17 03:27:00,42.5,38.0,29.77,SW,220,0.5,2.7,84,0.00,,,0.00,WUHU216HW,2013-02-17 11:27:00,
2013-02-17 03:32:00,42.5,38.0,29.77,North,0,0.2,2.7,84,0.00,,,0.00,WUHU216HW,2013-02-17 11:32:00,
2013-02-17 03:37:00,42.5,38.0,29.77,NNE,23,0.4,0.7,84,0.00,,,0.00,WUHU216HW,2013-02-17 11:37:00,
2013-02-17 03:42:00,42.3,38.1,29.77,NNE,23,0.4,0.7,85,0.00,,,0.00,WUHU216HW,2013-02-17 11:42:00,
2013-02-17 03:47:00,42.3,38.1,29.77,North,0,0.4,0.7,85,0.00,,,0.00,WUHU216HW,2013-02-17 11:47:00,
2013-02-17 03:52:00,42.3,38.1,29.77,North,0,0.0,0.4,85,0.00,,,0.00,WUHU216HW,2013-02-17 11:52:00,
2013-02-17 03:57:00,42.3,38.1,29.77,NE,45,0.3,1.1,85,0.00,,,0.00,WUHU216HW,2013-02-17 11:57:00,
2013-02-17 04:02:00,42.1,37.9,29.77,NE,45,0.0,1.1,85,0.00,,,0.00,WUHU216HW,2013-02-17 12:02:00,
2013-02-17 04:07:00,42.1,37.9,29.77,NE,45,0.0,0.2,85,0.00,,,0.00,WUHU216HW,2013-02-17 12:07:00,
2013-02-17 04:12:00,41.9,37.7,29.77,NE,45,0.4,0.7,85,0.00,,,0.00,WUHU216HW,2013-02-17 12:12:00,
2013-02-17 04:17:00,41.8,37.5,29.77,NE,45,0.0,0.7,85,0.00,,,0.00,WUHU216HW,2013-02-17 12:17:00,
2013-02-17 04:22:00,41.6,37.1,29.77,NE,45,0.3,0.4,84,0.00,,,0.00,WUHU216HW,2013-02-17 12:22:00,
2013-02-17 04:27:00,41.4,36.9,29.77,NW,315,0.4,0.4,84,0.00,,,0.00,WUHU216HW,2013-02-17 12:27:00,
2013-02-17 04:32:00,41.4,36.9,29.77,NW,315,0.0,0.7,84,0.00,,,0.00,WUHU216HW,2013-02-17 12:32:00,
2013-02-17 04:37:00,41.2,36.7,29.77,NW,315,0.0,0.7,84,0.00,,,0.00,WUHU216HW,2013-02-17 12:37:00,
2013-02-17 04:42:00,41.0,36.6,29.77,NW,315,0.0,0.0,84,0.00,,,0.00,WUHU216HW,2013-02-17 12:42:00,
2013-02-17 04:47:00,40.9,36.4,29.77,NW,315,0.0,0.0,84,0.00,,,0.00,WUHU216HW,2013-02-17 12:47:00,
2013-02-17 04:52:00,40.9,36.6,29.77,NW,315,0.0,0.0,85,0.00,,,0.00,WUHU216HW,2013-02-17 12:52:00,
2013-02-17 04:57:00,40.7,36.5,29.77,NW,315,0.0,0.0,85,0.00,,,0.00,WUHU216HW,2013-02-17 12:57:00,
2013-02-17 05:03:00,40.7,36.5,29.77,NW,315,0.0,0.0,85,0.00,,,0.00,WUHU216HW,2013-02-17 13:03:00,
2013-02-17 05:08:00,40.7,36.5,29.77,NW,315,0.0,0.0,85,0.00,,,0.00,WUHU216HW,2013-02-17 13:08:00,
2013-02-17 05:13:00,40.5,36.3,29.77,NW,315,0.0,0.0,85,0.00,,,0.00,WUHU216HW,2013-02-17 13:13:00,
2013-02-17 05:18:00,40.5,36.3,29.77,NW,315,0.0,0.0,85,0.00,,,0.00,WUHU216HW,2013-02-17 13:18:00,
2013-02-17 05:23:00,40.3,36.5,29.77,NW,315,0.0,0.0,86,0.00,,,0.00,WUHU216HW,2013-02-17 13:23:00,
2013-02-17 05:28:00,40.3,36.5,29.77,West,270,0.0,0.0,86,0.00,,,0.00,WUHU216HW,2013-02-17 13:28:00,
2013-02-17 05:33:00,40.1,36.3,29.77,WNW,293,1.1,1.1,86,0.00,,,0.00,WUHU216HW,2013-02-17 13:33:00,
2013-02-17 05:38:00,40.1,36.3,29.78,NW,315,0.5,1.6,86,0.00,,,0.00,WUHU216HW,2013-02-17 13:38:00,
2013-02-17 05:43:00,40.1,36.3,29.78,WNW,293,0.0,1.6,86,0.00,,,0.00,WUHU216HW,2013-02-17 13:43:00,
2013-02-17 05:48:00,40.1,36.3,29.78,WNW,293,0.2,0.4,86,0.00,,,0.00,WUHU216HW,2013-02-17 13:48:00,
2013-02-17 05:53:00,40.1,36.3,29.78,WNW,293,0.0,1.1,86,0.00,,,0.00,WUHU216HW,2013-02-17 13:53:00,
2013-02-17 05:58:00,40.1,36.3,29.78,WNW,293,0.4,1.1,86,0.00,,,0.00,WUHU216HW,2013-02-17 13:58:00,
2013-02-17 06:03:00,40.0,36.1,29.79,WNW,293,0.2,0.4,86,0.00,,,0.00,WUHU216HW,2013-02-17 14:03:00,
2013-02-17 06:08:00,40.0,36.1,29.79,WNW,293,0.0,0.2,86,0.00,,,0.00,WUHU216HW,2013-02-17 14:08:00,
2013-02-17 06:13:00,40.0,36.1,29.79,WNW,293,0.0,0.0,86,0.00,,,0.00,WUHU216HW,2013-02-17 14:13:00,
2013-02-17 06:18:00,39.8,35.9,29.79,WNW,293,0.0,0.0,86,0.00,,,0.00,WUHU216HW,2013-02-17 14:18:00,
2013-02-17 06:23:00,39.6,35.5,29.79,WNW,293,0.0,0.0,85,0.00,,,0.00,WUHU216HW,2013-02-17 14:23:00,
2013-02-17 06:28:00,39.4,35.6,29.79,WNW,293,0.0,0.0,86,0.00,,,0.00,WUHU216HW,2013-02-17 14:28:00,
2013-02-17 06:33:00,39.2,35.4,29.79,WNW,293,0.4,0.4,86,0.00,,,0.00,WUHU216HW,2013-02-17 14:33:00,
2013-02-17 06:38:00,39.2,35.4,29.79,WNW,293,0.0,0.4,86,0.00,,,0.00,WUHU216HW,2013-02-17 14:38:00,
2013-02-17 06:43:00,39.2,35.4,29.79,WNW,293,0.0,0.4,86,0.00,,,0.00,WUHU216HW,2013-02-17 14:43:00,
2013-02-17 06:48:00,39.2,35.4,29.79,WNW,293,0.0,0.0,86,0.00,,,0.00,WUHU216HW,2013-02-17 14:48:00,
2013-02-17 06:53:00,39.2,35.4,29.80,WNW,293,0.0,0.0,86,0.00,,,0.00,WUHU216HW,2013-02-17 14:53:00,
2013-02-17 06:58:00,39.2,35.4,29.80,WNW,293,0.0,0.0,86,0.00,,,0.00,WUHU216HW,2013-02-17 14:58:00,
2013-02-17 07:03:00,39.2,35.4,29.80,West,270,0.3,0.4,86,0.00,,,0.00,WUHU216HW,2013-02-17 15:03:00,
2013-02-17 07:08:00,39.2,35.6,29.80,West,270,0.0,0.4,87,0.00,,,0.00,WUHU216HW,2013-02-17 15:08:00,
2013-02-17 07:13:00,39.2,35.6,29.80,West,270,0.0,0.0,87,0.00,,,0.00,WUHU216HW,2013-02-17 15:13:00,
2013-02-17 07:18:00,39.2,35.6,29.80,WNW,293,0.4,0.4,87,0.00,,,0.00,WUHU216HW,2013-02-17 15:18:00,
2013-02-17 07:23:00,39.4,35.8,29.80,NW,315,0.0,0.4,87,0.00,,,0.00,WUHU216HW,2013-02-17 15:23:00,
2013-02-17 07:28:00,39.4,35.8,29.80,NW,315,0.0,0.4,87,0.00,,,0.00,WUHU216HW,2013-02-17 15:28:00,
2013-02-17 07:33:00,39.8,36.2,29.80,NW,315,0.0,0.0,87,0.00,,,0.00,WUHU216HW,2013-02-17 15:33:00,
2013-02-17 07:38:00,40.0,36.4,29.81,WNW,293,0.4,0.7,87,0.00,,,0.00,WUHU216HW,2013-02-17 15:38:00,
2013-02-17 07:43:00,40.3,37.0,29.81,WNW,293,0.0,0.7,88,0.00,,,0.00,WUHU216HW,2013-02-17 15:43:00,
2013-02-17 07:48:00,40.7,37.4,29.81,North,0,0.0,0.4,88,0.00,,,0.00,WUHU216HW,2013-02-17 15:48:00,
2013-02-17 07:53:00,41.2,37.9,29.81,North,0,0.4,0.4,88,0.00,,,0.00,WUHU216HW,2013-02-17 15:53:00,
2013-02-17 07:58:00,41.6,38.3,29.81,WNW,293,0.0,0.4,88,0.00,,,0.00,WUHU216HW,2013-02-17 15:58:00,
2013-02-17 08:03:00,42.1,38.8,29.81,NW,315,1.3,1.3,88,0.00,,,0.00,WUHU216HW,2013-02-17 16:03:00,
2013-02-17 08:08:00,42.7,39.3,29.81,NW,315,0.9,1.6,88,0.00,,,0.00,WUHU216HW,2013-02-17 16:08:00,
2013-02-17 08:13:00,43.4,40.1,29.81,NW,315,1.6,1.6,88,0.00,,,0.00,WUHU216HW,2013-02-17 16:13:00,
2013-02-17 08:18:00,44.1,40.8,29.81,NW,315,2.5,2.5,88,0.00,,,0.00,WUHU216HW,2013-02-17 16:18:00,
2013-02-17 08:23:00,44.8,41.5,29.81,NNW,338,1.8,3.1,88,0.00,,,0.00,WUHU216HW,2013-02-17 16:23:00,
2013-02-17 08:28:00,45.5,42.0,29.81,NW,324,1.0,3.1,87,0.00,,,0.00,WUHU216HW,2013-02-17 16:28:00,
2013-02-17 08:33:00,46.1,42.5,29.81,North,0,1.8,2.2,87,0.00,,,0.00,WUHU216HW,2013-02-17 16:33:00,
2013-02-17 08:38:00,46.6,42.4,29.81,North,351,1.4,2.2,85,0.00,,,0.00,WUHU216HW,2013-02-17 16:38:00,
2013-02-17 08:43:00,47.2,42.9,29.81,NW,315,1.8,2.7,85,0.00,,,0.00,WUHU216HW,2013-02-17 16:43:00,
2013-02-17 08:48:00,47.3,43.0,29.81,WNW,298,1.2,3.4,85,0.00,,,0.00,WUHU216HW,2013-02-17 16:48:00,
2013-02-17 08:53:00,47.9,43.3,29.81,WNW,289,1.3,3.4,84,0.00,,,0.00,WUHU216HW,2013-02-17 16:53:00,
2013-02-17 08:58:00,48.2,43.3,29.81,NW,304,2.5,4.0,83,0.00,,,0.00,WUHU216HW,2013-02-17 16:58:00,
2013-02-17 09:03:00,48.6,43.9,29.82,West,270,1.3,4.0,84,0.00,,,0.00,WUHU216HW,2013-02-17 17:03:00,
2013-02-17 09:08:00,48.8,43.8,29.82,West,270,1.8,2.5,83,0.00,,,0.00,WUHU216HW,2013-02-17 17:08:00,
2013-02-17 09:13:00,49.0,44.0,29.82,NW,315,2.5,2.9,83,0.00,,,0.00,WUHU216HW,2013-02-17 17:13:00,
2013-02-17 09:18:00,49.1,43.8,29.82,NW,315,3.1,3.4,82,0.00,,,0.00,WUHU216HW,2013-02-17 17:18:00,
2013-02-17 09:23:00,49.5,44.2,29.82,NNW,327,1.5,3.4,82,0.00,,,0.00,WUHU216HW,2013-02-17 17:23:00,
2013-02-17 09:28:00,49.7,44.0,29.82,NW,306,2.9,4.5,81,0.00,,,0.00,WUHU216HW,2013-02-17 17:28:00,
2013-02-17 09:33:00,50.0,44.1,29.82,NNE,23,1.8,4.5,80,0.00,,,0.00,WUHU216HW,2013-02-17 17:33:00,
2013-02-17 09:38:00,50.4,44.1,29.82,West,270,2.5,5.6,79,0.00,,,0.00,WUHU216HW,2013-02-17 17:38:00,
2013-02-17 09:43:00,50.8,44.1,29.82,NW,315,3.4,5.6,78,0.00,,,0.00,WUHU216HW,2013-02-17 17:43:00,
2013-02-17 09:50:00,50.9,44.0,29.82,NW,320,2.7,4.7,77,0.00,,,0.00,WUHU216HW,2013-02-17 17:50:00,
2013-02-17 09:55:00,51.1,43.5,29.82,NW,315,2.4,4.7,75,0.00,,,0.00,WUHU216HW,2013-02-17 17:55:00,
2013-02-17 10:00:00,51.5,43.8,29.82,North,356,1.8,4.0,75,0.00,,,0.00,WUHU216HW,2013-02-17 18:00:00,
2013-02-17 10:05:00,51.7,43.7,29.83,NNW,328,2.5,5.1,74,0.00,,,0.00,WUHU216HW,2013-02-17 18:05:00,
2013-02-17 10:10:00,51.8,43.5,29.83,NNW,342,1.9,5.1,73,0.00,,,0.00,WUHU216HW,2013-02-17 18:10:00,
2013-02-17 10:15:00,52.0,43.3,29.83,North,0,3.4,4.9,72,0.00,,,0.00,WUHU216HW,2013-02-17 18:15:00,
2013-02-17 10:20:00,52.4,43.7,29.82,NW,318,1.6,4.9,72,0.00,,,0.00,WUHU216HW,2013-02-17 18:20:00,
2013-02-17 10:25:00,52.4,43.7,29.82,NW,315,3.8,6.3,72,0.00,,,0.00,WUHU216HW,2013-02-17 18:25:00,
2013-02-17 10:30:00,52.6,43.8,29.82,NNW,338,2.7,6.3,72,0.00,,,0.00,WUHU216HW,2013-02-17 18:30:00,
2013-02-17 10:35:00,52.9,44.2,29.82,NW,316,2.1,3.8,72,0.00,,,0.00,WUHU216HW,2013-02-17 18:35:00,
2013-02-17 10:40:00,53.1,44.0,29.82,NE,45,3.4,3.4,71,0.00,,,0.00,WUHU216HW,2013-02-17 18:40:00,
2013-02-17 10:45:00,53.6,43.8,29.82,NW,318,3.2,5.1,69,0.00,,,0.00,WUHU216HW,2013-02-17 18:45:00,
2013-02-17 10:50:00,53.8,43.1,29.82,North,356,2.3,5.1,67,0.00,,,0.00,WUHU216HW,2013-02-17 18:50:00,
2013-02-17 10:55:00,54.0,43.7,29.82,North,353,2.2,4.0,68,0.00,,,0.00,WUHU216HW,2013-02-17 18:55:00,
2013-02-17 11:00:00,54.4,43.7,29.82,North,354,1.9,4.0,67,0.00,,,0.00,WUHU216HW,2013-02-17 19:00:00,
2013-02-17 11:05:00,54.7,43.9,29.82,North,359,2.1,4.5,67,0.00,,,0.00,WUHU216HW,2013-02-17 19:05:00,
2013-02-17 11:10:00,55.1,43.9,29.81,NNE,23,3.8,4.5,66,0.00,,,0.00,WUHU216HW,2013-02-17 19:10:00,
2013-02-17 11:15:00,55.4,44.3,29.81,NW,315,2.0,3.8,66,0.00,,,0.00,WUHU216HW,2013-02-17 19:15:00,
2013-02-17 11:20:00,55.6,43.6,29.81,NNW,346,2.6,3.8,64,0.00,,,0.00,WUHU216HW,2013-02-17 19:20:00,
2013-02-17 11:25:00,55.8,44.2,29.81,NW,313,2.9,5.8,65,0.00,,,0.00,WUHU216HW,2013-02-17 19:25:00,
2013-02-17 11:30:00,56.0,43.9,29.81,NW,315,1.8,5.8,64,0.00,,,0.00,WUHU216HW,2013-02-17 19:30:00,
2013-02-17 11:35:00,56.2,44.1,29.81,NE,45,3.1,4.0,64,0.00,,,0.00,WUHU216HW,2013-02-17 19:35:00,
2013-02-17 11:40:00,56.5,44.5,29.81,WNW,293,1.8,4.0,64,0.00,,,0.00,WUHU216HW,2013-02-17 19:40:00,
2013-02-17 11:45:00,56.9,44.0,29.81,North,1,2.9,5.4,62,0.00,,,0.00,WUHU216HW,2013-02-17 19:45:00,
2013-02-17 11:50:00,57.2,45.2,29.81,WNW,303,0.9,5.4,64,0.00,,,0.00,WUHU216HW,2013-02-17 19:50:00,
2013-02-17 11:55:00,57.4,43.8,29.81,NNE,23,4.0,4.7,60,0.00,,,0.00,WUHU216HW,2013-02-17 19:55:00,
2013-02-17 12:00:00,58.1,44.4,29.81,NNW,339,2.2,4.9,60,0.00,,,0.00,WUHU216HW,2013-02-17 20:00:00,
2013-02-17 12:05:00,58.5,44.2,29.80,North,354,2.1,4.9,59,0.00,,,0.00,WUHU216HW,2013-02-17 20:05:00,
2013-02-17 12:10:00,58.7,43.9,29.80,WNW,293,3.2,4.7,58,0.00,,,0.00,WUHU216HW,2013-02-17 20:10:00,
2013-02-17 12:15:00,59.0,44.3,29.80,NW,315,1.8,6.7,58,0.00,,,0.00,WUHU216HW,2013-02-17 20:15:00,
2013-02-17 12:20:00,59.4,44.1,29.80,WNW,303,5.9,11.0,57,0.00,,,0.00,WUHU216HW,2013-02-17 20:20:00,
2013-02-17 12:25:00,59.8,44.0,29.79,North,0,2.7,11.0,56,0.00,,,0.00,WUHU216HW,2013-02-17 20:25:00,
2013-02-17 12:30:00,60.1,44.4,29.79,NNW,334,2.4,7.4,56,0.00,,,0.00,WUHU216HW,2013-02-17 20:30:00,
2013-02-17 12:35:00,60.5,44.7,29.78,WNW,293,3.8,7.4,56,0.00,,,0.00,WUHU216HW,2013-02-17 20:35:00,
2013-02-17 12:40:00,60.7,44.8,29.78,NW,319,3.6,6.0,56,0.00,,,0.00,WUHU216HW,2013-02-17 20:40:00,
2013-02-17 12:45:00,61.0,45.2,29.78,WNW,293,6.5,6.5,56,0.00,,,0.00,WUHU216HW,2013-02-17 20:45:00,
2013-02-17 12:50:00,61.2,44.4,29.78,West,270,2.9,8.1,54,0.00,,,0.00,WUHU216HW,2013-02-17 20:50:00,
2013-02-17 12:55:00,61.6,44.7,29.78,WNW,293,2.5,8.1,54,0.00,,,0.00,WUHU216HW,2013-02-17 20:55:00,
2013-02-17 13:00:00,61.9,45.6,29.78,NW,313,1.7,5.6,55,0.00,,,0.00,WUHU216HW,2013-02-17 21:00:00,
2013-02-17 13:05:00,62.3,45.4,29.77,NW,315,3.8,4.3,54,0.00,,,0.00,WUHU216HW,2013-02-17 21:05:00,
2013-02-17 13:10:00,62.6,45.7,29.77,NW,315,3.8,7.6,54,0.00,,,0.00,WUHU216HW,2013-02-17 21:10:00,
2013-02-17 13:15:00,62.8,44.9,29.77,WSW,248,4.7,7.6,52,0.00,,,0.00,WUHU216HW,2013-02-17 21:15:00,
2013-02-17 13:20:00,63.0,45.6,29.77,NW,321,3.0,7.6,53,0.00,,,0.00,WUHU216HW,2013-02-17 21:20:00,
2013-02-17 13:25:00,63.4,44.4,29.77,NNW,333,3.2,5.4,50,0.00,,,0.00,WUHU216HW,2013-02-17 21:25:00,
2013-02-17 13:30:00,63.7,45.2,29.76,WNW,284,2.6,5.4,51,0.00,,,0.00,WUHU216HW,2013-02-17 21:30:00,
2013-02-17 13:35:00,63.9,45.4,29.76,North,0,1.8,5.4,51,0.00,,,0.00,WUHU216HW,2013-02-17 21:35:00,
2013-02-17 13:40:00,64.1,44.5,29.76,NW,315,5.8,9.4,49,0.00,,,0.00,WUHU216HW,2013-02-17 21:40:00,
2013-02-17 13:45:00,64.3,44.7,29.76,North,11,1.5,9.4,49,0.00,,,0.00,WUHU216HW,2013-02-17 21:45:00,
2013-02-17 13:50:00,64.4,44.8,29.76,North,0,4.7,5.8,49,0.00,,,0.00,WUHU216HW,2013-02-17 21:50:00,
2013-02-17 13:56:00,65.0,44.7,29.75,West,280,2.7,7.2,48,0.00,,,0.00,WUHU216HW,2013-02-17 21:56:00,
2013-02-17 14:01:00,65.2,44.9,29.75,NNE,16,1.7,7.2,48,0.00,,,0.00,WUHU216HW,2013-02-17 22:01:00,
2013-02-17 14:06:00,65.2,43.7,29.76,North,2,3.0,4.5,46,0.00,,,0.00,WUHU216HW,2013-02-17 22:06:00,
2013-02-17 14:11:00,65.2,43.2,29.76,NE,45,4.5,4.7,45,0.00,,,0.00,WUHU216HW,2013-02-17 22:11:00,
2013-02-17 14:16:00,65.2,43.7,29.76,WNW,293,5.4,5.4,46,0.00,,,0.00,WUHU216HW,2013-02-17 22:16:00,
2013-02-17 14:21:00,65.5,44.6,29.76,NW,317,2.5,6.5,47,0.00,,,0.00,WUHU216HW,2013-02-17 22:21:00,
2013-02-17 14:26:00,65.5,43.5,29.75,NNW,343,3.0,6.5,45,0.00,,,0.00,WUHU216HW,2013-02-17 22:26:00,
2013-02-17 14:31:00,65.7,43.1,29.75,NNW,338,2.7,5.6,44,0.00,,,0.00,WUHU216HW,2013-02-17 22:31:00,
2013-02-17 14:36:00,65.7,43.7,29.75,NNE,17,1.4,4.0,45,0.00,,,0.00,WUHU216HW,2013-02-17 22:36:00,
2013-02-17 14:41:00,65.9,43.8,29.75,NNW,334,2.1,4.0,45,0.00,,,0.00,WUHU216HW,2013-02-17 22:41:00,
2013-02-17 14:46:00,66.1,44.0,29.75,North,350,2.5,3.4,45,0.00,,,0.00,WUHU216HW,2013-02-17 22:46:00,
2013-02-17 14:51:00,66.4,44.4,29.74,North,0,1.6,4.0,45,0.00,,,0.00,WUHU216HW,2013-02-17 22:51:00,
2013-02-17 14:56:00,66.6,43.9,29.74,North,0,3.6,4.3,44,0.00,,,0.00,WUHU216HW,2013-02-17 22:56:00,
2013-02-17 15:01:00,66.6,43.9,29.74,NNE,23,3.4,4.3,44,0.00,,,0.00,WUHU216HW,2013-02-17 23:01:00,
2013-02-17 15:06:00,66.4,44.4,29.75,NNE,23,4.0,4.9,45,0.00,,,0.00,WUHU216HW,2013-02-17 23:06:00,
2013-02-17 15:11:00,66.6,43.9,29.75,NW,308,2.2,4.9,44,0.00,,,0.00,WUHU216HW,2013-02-17 23:11:00,
2013-02-17 15:16:00,66.6,43.9,29.74,North,0,1.8,6.0,44,0.00,,,0.00,WUHU216HW,2013-02-17 23:16:00,
2013-02-17 15:21:00,67.0,43.0,29.75,NNE,15,3.1,6.0,42,0.00,,,0.00,WUHU216HW,2013-02-17 23:21:00,
2013-02-17 15:26:00,67.0,44.3,29.74,NW,315,2.5,3.8,44,0.00,,,0.00,WUHU216HW,2013-02-17 23:26:00,
2013-02-17 15:31:00,67.1,44.4,29.74,WNW,293,1.8,5.4,44,0.00,,,0.00,WUHU216HW,2013-02-17 23:31:00,
2013-02-17 15:36:00,67.1,43.8,29.74,North,0,2.5,5.8,43,0.00,,,0.00,WUHU216HW,2013-02-17 23:36:00,
2013-02-17 15:41:00,67.0,42.5,29.74,North,0,2.8,5.8,41,0.00,,,0.00,WUHU216HW,2013-02-17 23:41:00,
2013-02-17 15:46:00,67.0,41.9,29.74,NNE,23,3.6,4.7,40,0.00,,,0.00,WUHU216HW,2013-02-17 23:46:00,
2013-02-17 15:51:00,66.8,42.3,29.74,WSW,248,3.6,4.7,41,0.00,,,0.00,WUHU216HW,2013-02-17 23:51:00,
2013-02-17 15:56:00,66.8,42.9,29.74,NW,320,3.4,4.7,42,0.00,,,0.00,WUHU216HW,2013-02-17 23:56:00,
2013-02-17 16:01:00,66.6,42.1,29.73,NW,315,4.0,4.5,41,0.00,,,0.00,WUHU216HW,2013-02-18 00:01:00,
2013-02-17 16:06:00,66.6,42.1,29.73,NW,307,2.6,4.9,41,0.00,,,0.00,WUHU216HW,2013-02-18 00:06:00,
2013-02-17 16:11:00,66.4,42.6,29.73,North,0,1.8,4.9,42,0.00,,,0.00,WUHU216HW,2013-02-18 00:11:00,
2013-02-17 16:16:00,66.4,42.6,29.73,NNW,338,1.1,3.1,42,0.00,,,0.00,WUHU216HW,2013-02-18 00:16:00,
2013-02-17 16:21:00,66.2,41.9,29.73,West,270,1.8,3.4,41,0.00,,,0.00,WUHU216HW,2013-02-18 00:21:00,
2013-02-17 16:26:00,66.1,42.2,29.73,NNW,338,1.7,4.7,42,0.00,,,0.00,WUHU216HW,2013-02-18 00:26:00,
2013-02-17 16:31:00,65.9,42.1,29.74,West,270,3.1,6.3,42,0.00,,,0.00,WUHU216HW,2013-02-18 00:31:00,
2013-02-17 16:36:00,65.9,41.5,29.73,WNW,296,2.1,6.3,41,0.00,,,0.00,WUHU216HW,2013-02-18 00:36:00,
2013-02-17 16:41:00,65.7,41.3,29.73,NNW,344,2.5,4.5,41,0.00,,,0.00,WUHU216HW,2013-02-18 00:41:00,
2013-02-17 16:46:00,65.3,41.0,29.73,West,270,4.9,4.9,41,0.00,,,0.00,WUHU216HW,2013-02-18 00:46:00,
2013-02-17 16:51:00,65.2,40.9,29.73,WSW,248,1.6,5.4,41,0.00,,,0.00,WUHU216HW,2013-02-18 00:51:00,
2013-02-17 16:56:00,65.2,41.4,29.73,WNW,294,2.2,5.4,42,0.00,,,0.00,WUHU216HW,2013-02-18 00:56:00,
2013-02-17 17:01:00,64.8,40.5,29.73,North,0,1.3,4.0,41,0.00,,,0.00,WUHU216HW,2013-02-18 01:01:00,
2013-02-17 17:06:00,64.6,41.0,29.72,NW,315,1.1,3.1,42,0.00,,,0.00,WUHU216HW,2013-02-18 01:06:00,
2013-02-17 17:11:00,64.4,41.3,29.72,WNW,293,1.3,3.1,43,0.00,,,0.00,WUHU216HW,2013-02-18 01:11:00,
2013-02-17 17:16:00,64.1,41.1,29.72,WNW,294,1.3,3.1,43,0.00,,,0.00,WUHU216HW,2013-02-18 01:16:00,
2013-02-17 17:21:00,63.7,41.2,29.72,WNW,293,0.9,2.9,44,0.00,,,0.00,WUHU216HW,2013-02-18 01:21:00,
2013-02-17 17:26:00,63.7,41.9,29.72,NW,315,1.8,3.6,45,0.00,,,0.00,WUHU216HW,2013-02-18 01:26:00,
2013-02-17 17:31:00,63.5,42.2,29.72,NNW,338,1.1,3.6,46,0.00,,,0.00,WUHU216HW,2013-02-18 01:31:00,
2013-02-17 17:36:00,63.4,42.7,29.72,WNW,293,0.3,2.0,47,0.00,,,0.00,WUHU216HW,2013-02-18 01:36:00,
2013-02-17 17:41:00,63.0,42.3,29.72,NW,315,1.1,1.3,47,0.00,,,0.00,WUHU216HW,2013-02-18 01:41:00,
2013-02-17 17:46:00,63.0,42.9,29.72,NW,315,0.5,1.8,48,0.00,,,0.00,WUHU216HW,2013-02-18 01:46:00,
2013-02-17 17:51:00,63.0,44.1,29.72,WNW,300,0.3,1.8,50,0.00,,,0.00,WUHU216HW,2013-02-18 01:51:00,
2013-02-17 17:56:00,62.8,43.9,29.72,WNW,293,0.0,1.1,50,0.00,,,0.00,WUHU216HW,2013-02-18 01:56:00,
2013-02-17 18:01:00,62.8,43.9,29.72,WNW,293,0.0,1.1,50,0.00,,,0.00,WUHU216HW,2013-02-18 02:01:00,
2013-02-17 18:06:00,62.6,43.7,29.72,WNW,293,0.0,0.2,50,0.00,,,0.00,WUHU216HW,2013-02-18 02:06:00,
2013-02-17 18:11:00,61.9,42.5,29.72,WNW,293,0.0,0.0,49,0.00,,,0.00,WUHU216HW,2013-02-18 02:11:00,
2013-02-17 18:16:00,61.0,41.1,29.72,WNW,293,0.0,0.0,48,0.00,,,0.00,WUHU216HW,2013-02-18 02:16:00,
2013-02-17 18:21:00,60.1,40.9,29.73,WNW,293,0.0,0.0,49,0.00,,,0.00,WUHU216HW,2013-02-18 02:21:00,
2013-02-17 18:26:00,59.4,40.2,29.73,WNW,293,0.0,0.0,49,0.00,,,0.00,WUHU216HW,2013-02-18 02:26:00,
2013-02-17 18:31:00,58.7,40.1,29.73,WNW,293,0.0,0.0,50,0.00,,,0.00,WUHU216HW,2013-02-18 02:31:00,
2013-02-17 18:36:00,58.0,40.0,29.73,WNW,293,0.0,0.0,51,0.00,,,0.00,WUHU216HW,2013-02-18 02:36:00,
2013-02-17 18:41:00,57.4,39.5,29.73,WNW,293,0.0,0.0,51,0.00,,,0.00,WUHU216HW,2013-02-18 02:41:00,
2013-02-17 18:46:00,57.1,39.6,29.73,WNW,293,0.0,0.0,52,0.00,,,0.00,WUHU216HW,2013-02-18 02:46:00,
2013-02-17 18:51:00,56.5,39.6,29.73,WNW,293,0.0,0.0,53,0.00,,,0.00,WUHU216HW,2013-02-18 02:51:00,
2013-02-17 18:56:00,56.2,38.7,29.73,WNW,293,0.0,0.0,52,0.00,,,0.00,WUHU216HW,2013-02-18 02:56:00,
2013-02-17 19:01:00,55.4,38.5,29.73,WNW,293,0.0,0.0,53,0.00,,,0.00,WUHU216HW,2013-02-18 03:01:00,
2013-02-17 19:06:00,54.9,38.0,29.73,WNW,293,0.0,0.0,53,0.00,,,0.00,WUHU216HW,2013-02-18 03:06:00,
2013-02-17 19:11:00,54.4,38.0,29.73,WNW,293,0.0,0.0,54,0.00,,,0.00,WUHU216HW,2013-02-18 03:11:00,
2013-02-17 19:16:00,54.0,37.6,29.73,WNW,293,0.0,0.0,54,0.00,,,0.00,WUHU216HW,2013-02-18 03:16:00,
2013-02-17 19:21:00,53.6,37.8,29.73,WNW,293,0.0,0.0,55,0.00,,,0.00,WUHU216HW,2013-02-18 03:21:00,
2013-02-17 19:26:00,53.3,37.9,29.73,WNW,293,0.0,0.0,56,0.00,,,0.00,WUHU216HW,2013-02-18 03:26:00,
2013-02-17 19:31:00,52.9,37.6,29.73,WSW,248,0.5,0.9,56,0.00,,,0.00,WUHU216HW,2013-02-18 03:31:00,
2013-02-17 19:36:00,52.7,37.9,29.74,WSW,248,0.4,1.1,57,0.00,,,0.00,WUHU216HW,2013-02-18 03:36:00,
2013-02-17 19:41:00,52.6,37.7,29.74,West,270,0.4,1.1,57,0.00,,,0.00,WUHU216HW,2013-02-18 03:41:00,
2013-02-17 19:46:00,52.6,37.7,29.74,WSW,248,0.4,1.1,57,0.00,,,0.00,WUHU216HW,2013-02-18 03:46:00,
2013-02-17 19:51:00,52.2,37.8,29.74,WSW,248,0.0,0.4,58,0.00,,,0.00,WUHU216HW,2013-02-18 03:51:00,
2013-02-17 19:56:00,52.0,37.6,29.74,WSW,248,0.4,0.4,58,0.00,,,0.00,WUHU216HW,2013-02-18 03:56:00,
2013-02-17 20:01:00,51.7,37.3,29.74,WSW,248,0.0,0.4,58,0.00,,,0.00,WUHU216HW,2013-02-18 04:01:00,
2013-02-17 20:06:00,51.3,37.5,29.74,WSW,248,0.0,0.2,59,0.00,,,0.00,WUHU216HW,2013-02-18 04:06:00,
2013-02-17 20:11:00,50.8,36.9,29.74,WSW,248,0.0,0.0,59,0.00,,,0.00,WUHU216HW,2013-02-18 04:11:00,
2013-02-17 20:16:00,50.4,37.1,29.74,WSW,248,0.0,0.0,60,0.00,,,0.00,WUHU216HW,2013-02-18 04:16:00,
2013-02-17 20:21:00,50.2,37.3,29.74,West,270,0.0,0.0,61,0.00,,,0.00,WUHU216HW,2013-02-18 04:21:00,
2013-02-17 20:26:00,50.0,37.1,29.75,West,270,0.0,0.0,61,0.00,,,0.00,WUHU216HW,2013-02-18 04:26:00,
2013-02-17 20:31:00,49.9,37.4,29.75,West,270,0.0,0.0,62,0.00,,,0.00,WUHU216HW,2013-02-18 04:31:00,
2013-02-17 20:36:00,49.5,37.0,29.74,West,270,0.0,0.0,62,0.00,,,0.00,WUHU216HW,2013-02-18 04:36:00,
2013-02-17 20:41:00,49.3,36.8,29.75,SW,226,1.3,2.5,62,0.00,,,0.00,WUHU216HW,2013-02-18 04:41:00,
2013-02-17 20:46:00,49.0,36.9,29.75,SW,225,0.0,2.5,63,0.00,,,0.00,WUHU216HW,2013-02-18 04:46:00,
2013-02-17 20:51:00,48.8,36.7,29.75,SW,225,0.0,0.4,63,0.00,,,0.00,WUHU216HW,2013-02-18 04:51:00,
2013-02-17 20:57:00,48.6,36.5,29.75,SW,225,0.0,0.0,63,0.00,,,0.00,WUHU216HW,2013-02-18 04:57:00,
2013-02-17 21:00:00,48.4,36.4,29.75,SW,225,0.0,0.0,63,0.00,,,0.00,WUHU216HW,2013-02-18 05:00:00,
2013-02-17 21:05:00,48.1,36.1,29.75,WSW,248,0.0,0.0,63,0.00,,,0.00,WUHU216HW,2013-02-18 05:05:00,
2013-02-17 21:10:00,47.9,36.3,29.75,WSW,248,0.0,0.0,64,0.00,,,0.00,WUHU216HW,2013-02-18 05:10:00,
2013-02-17 21:15:00,47.9,36.3,29.75,SW,225,0.3,0.7,64,0.00,,,0.00,WUHU216HW,2013-02-18 05:15:00,
2013-02-17 21:20:00,47.7,36.1,29.75,NW,315,0.2,0.7,64,0.00,,,0.00,WUHU216HW,2013-02-18 05:20:00,
2013-02-17 21:25:00,47.5,36.3,29.75,West,270,0.3,0.7,65,0.00,,,0.00,WUHU216HW,2013-02-18 05:25:00,
2013-02-17 21:30:00,47.2,36.0,29.76,West,270,0.0,0.7,65,0.00,,,0.00,WUHU216HW,2013-02-18 05:30:00,
2013-02-17 21:35:00,47.2,36.4,29.75,WNW,293,0.4,0.7,66,0.00,,,0.00,WUHU216HW,2013-02-18 05:35:00,
2013-02-17 21:40:00,46.8,36.5,29.76,West,270,0.0,0.7,67,0.00,,,0.00,WUHU216HW,2013-02-18 05:40:00,
2013-02-17 21:45:00,46.6,36.3,29.76,WNW,293,0.5,0.7,67,0.00,,,0.00,WUHU216HW,2013-02-18 05:45:00,
2013-02-17 21:50:00,46.4,36.5,29.76,WNW,293,0.0,0.7,68,0.00,,,0.00,WUHU216HW,2013-02-18 05:50:00,
2013-02-17 21:55:00,46.3,36.3,29.76,WNW,293,0.3,0.4,68,0.00,,,0.00,WUHU216HW,2013-02-18 05:55:00,
2013-02-17 22:00:00,46.3,36.3,29.76,WNW,293,0.0,0.4,68,0.00,,,0.00,WUHU216HW,2013-02-18 06:00:00,
2013-02-17 22:05:00,46.1,36.1,29.75,WNW,293,0.0,0.0,68,0.00,,,0.00,WUHU216HW,2013-02-18 06:05:00,
2013-02-17 22:10:00,45.7,36.2,29.76,WNW,293,0.0,0.0,69,0.00,,,0.00,WUHU216HW,2013-02-18 06:10:00,
2013-02-17 22:15:00,45.5,36.0,29.75,West,270,0.0,0.4,69,0.00,,,0.00,WUHU216HW,2013-02-18 06:15:00,
2013-02-17 22:20:00,45.4,36.2,29.75,West,270,0.0,0.4,70,0.00,,,0.00,WUHU216HW,2013-02-18 06:20:00,
2013-02-17 22:25:00,45.2,36.0,29.76,West,270,0.0,0.4,70,0.00,,,0.00,WUHU216HW,2013-02-18 06:25:00,
2013-02-17 22:30:00,45.0,36.2,29.75,West,270,0.0,0.4,71,0.00,,,0.00,WUHU216HW,2013-02-18 06:30:00,
2013-02-17 22:35:00,44.8,36.4,29.75,West,270,0.0,0.0,72,0.00,,,0.00,WUHU216HW,2013-02-18 06:35:00,
2013-02-17 22:40:00,44.6,36.2,29.75,West,270,0.0,0.0,72,0.00,,,0.00,WUHU216HW,2013-02-18 06:40:00,
2013-02-17 22:45:00,44.6,36.2,29.76,West,270,0.0,0.0,72,0.00,,,0.00,WUHU216HW,2013-02-18 06:45:00,
2013-02-17 22:50:00,44.5,36.0,29.75,West,270,0.0,0.0,72,0.00,,,0.00,WUHU216HW,2013-02-18 06:50:00,
2013-02-17 22:55:00,44.3,36.2,29.75,West,270,0.0,0.2,73,0.00,,,0.00,WUHU216HW,2013-02-18 06:55:00,
2013-02-17 23:00:00,44.3,36.2,29.76,West,270,0.0,0.2,73,0.00,,,0.00,WUHU216HW,2013-02-18 07:00:00,
2013-02-17 23:05:00,44.1,36.0,29.76,West,270,0.0,0.0,73,0.00,,,0.00,WUHU216HW,2013-02-18 07:05:00,
2013-02-17 23:10:00,43.7,35.6,29.76,West,270,0.0,0.0,73,0.00,,,0.00,WUHU216HW,2013-02-18 07:10:00,
2013-02-17 23:15:00,43.6,35.5,29.75,West,270,0.0,0.0,73,0.00,,,0.00,WUHU216HW,2013-02-18 07:15:00,
2013-02-17 23:20:00,43.2,35.5,29.75,West,270,0.0,0.0,74,0.00,,,0.00,WUHU216HW,2013-02-18 07:20:00,
2013-02-17 23:25:00,43.0,35.3,29.75,West,270,0.0,0.0,74,0.00,,,0.00,WUHU216HW,2013-02-18 07:25:00,
2013-02-17 23:30:00,42.8,35.1,29.75,West,270,0.0,0.0,74,0.00,,,0.00,WUHU216HW,2013-02-18 07:30:00,
2013-02-17 23:35:00,42.8,35.1,29.75,West,270,0.0,0.0,74,0.00,,,0.00,WUHU216HW,2013-02-18 07:35:00,
2013-02-17 23:40:00,42.8,35.5,29.76,West,270,0.0,0.0,75,0.00,,,0.00,WUHU216HW,2013-02-18 07:40:00,
2013-02-17 23:45:00,42.5,35.1,29.76,West,270,0.0,0.0,75,0.00,,,0.00,WUHU216HW,2013-02-18 07:45:00,
2013-02-17 23:50:00,42.3,34.9,29.76,West,270,0.0,0.0,75,0.00,,,0.00,WUHU216HW,2013-02-18 07:50:00,
2013-02-17 23:55:00,42.1,34.7,29.76,West,270,0.0,0.0,75,0.00,,,0.00,WUHU216HW,2013-02-18 07:55:00,